Regional Weather Roundup
Issued by NWS

Home | Current Version | Previous Version | Text Only | Print | Product List | Glossary On
Versions: 1 2 3 4 5 6 7 8 9 10 11 12 13 14 15 16 17 18 19 20 21 22 23 24 25 26 27 28 29 30 31 32 33 34 35 36 37 38 39 40 41 42 43 44 45 46 47 48 49 50
000
ASUS44 KEWX 030403
RWRTX
SOUTH TEXAS REGIONAL WEATHER ROUNDUP
NATIONAL WEATHER SERVICE AUSTIN/SAN ANTONIO TX
1100 PM CDT WED SEP 02 2015

NOTE: "FAIR" INDICATED FEW OR NO CLOUDS BELOW 12,000 FEET WITH NO
SIGNIFICANT WEATHER AND/OR OBSTRUCTIONS TO VISIBILITY.

* - THESE STATIONS ARE NOT NWS OR FAA STATIONS...AND ARE NOT SUBJECT
    TO NWS AND FAA QUALITY CONTROL.

TXZ171-172-183>190-030500-
TEXAS HILL COUNTRY AND EDWARDS PLATEAU

CITY           SKY/WX    TMP DP  RH WIND       PRES   REMARKS
JUNCTION       CLEAR     80  61  52 E3        30.00R
*LLANO         CLEAR     81  63  54 SE6       30.01R
BURNET         CLEAR     79  64  60 SE7       30.01R
*HORSESHOE BAY CLEAR     80  67  64 SE7       29.98S
*KERRVILLE     CLEAR     74  64  69 CALM      30.00S
*FREDERICKSBRG CLEAR     76  62  63 CALM      30.01R
*ROCKSPRINGS   CLEAR     75  63  64 SE5       30.04S
*BOERNE STAGE  CLEAR     77  63  61 SE7       30.01R
*CASTROVILLE   CLEAR     82  66  58 SE8       29.97R
HONDO          CLEAR     82  66  58 SE10      29.97R
*UVALDE        CLEAR     81  62  51 E7        29.95R
DEL RIO        CLEAR     83  61  47 E7        29.92R
LAUGHLIN AFB   NOT AVBL
CARRIZO SPRGS  CLEAR     82  68  61 SE9G16    29.91R
*EAGLE PASS    CLEAR     82  63  51 E6        29.92S
$$

TXZ173-191>194-202-209-217>225-228-030500-
CENTRAL AND SOUTH CENTRAL TEXAS

CITY           SKY/WX    TMP DP  RH WIND       PRES   REMARKS
GEORGETOWN     CLEAR     79  66  65 SE6       29.99S
AUSTIN/BERGSTM PTCLDY    78  69  73 SE6       29.96S
AUSTIN/MABRY   CLEAR     80  68  66 SE7       29.98R
*AUSTIN/EXEC   CLEAR     77  68  73 CALM      29.98R
*LAGO VISTA    CLEAR     79  66  64 SE6       30.00R
SAN MARCOS     CLEAR     79  68  69 SE6       29.98S
NEW BRAUNFELS  CLEAR     80  69  69 SE9       29.96R
RANDOLPH AFB   CLEAR     78  70  74 SE8       29.97R
PT SAN ANTONIO CLEAR     82  69  66 SE14      29.94R
SAN ANTONIO    CLEAR     81  68  64 SE13      29.97R
STINSON FIELD  CLEAR     81  69  67 SE9       29.94R
*PLEASANTON    CLEAR     81  69  67 E8        29.95R
*LA GRANGE     CLEAR     78  73  84 CALM      29.94S
*GIDDINGS      CLEAR     76  69  78 CALM      30.01R
*GONZALES      CLEAR     78  72  80 CALM      29.96R
$$

TXZ163>164-176>182-195>201-210>213-226-227-235-030500-
SOUTHEAST TEXAS

CITY           SKY/WX    TMP DP  RH WIND       PRES   REMARKS
COLLEGE STN    CLEAR     77  70  79 SE7       29.97R
*BRYAN         CLEAR     74  70  87 E3        29.98S
*CALDWELL      CLEAR     75  73  94 E3        30.00S
*CROCKETT      CLEAR     75  68  78 SE3       30.01S
*BRENHAM       CLEAR     77  71  81 E3        29.97S
HUNTSVILLE     MOCLDY    77  69  76 CALM      29.97F
CONROE         CLEAR     74  70  87 CALM      29.97S
HOUSTON BUSH   PTCLDY    75  73  93 VRB3      29.95F
HOUSTON HOBBY  MOCLDY    79  75  87 CALM      29.94S
*HOUSTON SW AP CLEAR     76  74  93 CALM      29.95S
PEARLAND       PTCLDY    79  75  87 CALM      29.95F
HOUSTON HOOKS  CLEAR     76  72  87 CALM      29.96S
ELLINGTON FLD  MOCLDY    79  77  94 CALM      29.96S
SUGAR LAND     PTCLDY    75  73  93 CALM      29.94S
*HOUSTON EXEC  CLEAR     73  73 100 E3        29.96F
*CLEVELAND MUN CLEAR     72  72  99 CALM      29.97F FOG
*WHARTON       CLEAR     75  73  94 CALM      29.95S
*COLUMBUS      NOT AVBL
*EAGLE LAKE    CLEAR     74  73  95 CALM      29.95S
$$

TXZ214>216-236>238-030500-
THE UPPER TEXAS COAST

CITY           SKY/WX    TMP DP  RH WIND       PRES   REMARKS
*ORANGE        PTCLDY   N/A N/A N/A CALM      29.99S
PORT ARTHUR    CLEAR     79  75  87 E7        29.96R
GALVESTON      CLEAR     81  75  82 SE7       29.95S
ANGLETON       CLEAR     76  75  97 CALM      29.94S
*BAY CITY      CLEAR     77  76  98 CALM      29.94R
PALACIOS       CLEAR     79  76  90 E5        29.93S
$$

TXZ229>234-239>247-030500-
TEXAS COASTAL BEND AND RIO GRANDE PLAINS

CITY           SKY/WX    TMP DP  RH WIND       PRES   REMARKS
VICTORIA       CLEAR     75  74  96 CALM      29.95R
*BEEVILLE      CLEAR     76  75  96 CALM      29.94S
ROCKPORT       PTCLDY    82  75  79 SE9       29.93R
*PORT ARANSAS  PTCLDY    82  76  81 SE8       29.92S
*PORT LAVACA   NOT AVBL
*INGLESIDE     CLEAR     81  75  81 E6        29.93R
CORPUS CHRISTI PTCLDY    81  74  79 SE8       29.93R
CORPUS NAS     PTCLDY    81  75  82 SE10      29.92S
*ROBSTOWN      CLEAR     79  76  89 E6        29.93S
ALICE          CLEAR     77  74  90 E6        29.93R
KINGSVILLE NAS PTCLDY    79  77  94 E6        29.93R
COTULLA        CLEAR     85  70  60 SE15      29.93R
*FAITH RANCH   MOCLDY    86  70  58 SE13G22   29.93R HX  90
LAREDO         CLEAR     84  73  69 E17       29.94R HX  90
$$

TXZ248>255-030500-
DEEP SOUTH TEXAS

CITY           SKY/WX    TMP DP  RH WIND       PRES   REMARKS
BROWNSVILLE    CLEAR     79  77  94 SE7       29.92R
PORT ISABEL    PTCLDY    84  78  82 SE13      29.92R HX  95
*SOUTH PADRE   CLEAR     82  77  83 E14       29.92S HX  91
HARLINGEN      CLEAR     79  77  94 E5        29.91R
*HEBBRONVILLE  NOT AVBL
MCALLEN        CLEAR     84  75  74 E9        29.93R HX  92
*WESLACO       CLEAR     81  73  78 E3        29.91R
FALFURRIAS     PTCLDY    78  74  88 CALM      29.93R
EDINBURG       CLEAR     81  74  79 E5        29.93R
*ZAPATA        CLEAR     83  72  69 SE7       29.92R
$$

TXZ213>215-236>238-242>244-246-247-251-254-255-030500-
CMAN STATIONS

STATION/POSITION TIME  TEMP    WIND        PRES    WAVE
                       AIR SEA DIR/SP/G            HT/PER
                 (UTC) (F)     (DEG/KT/KT) (MB)    (FT/S)
$$

GMZ080-GMZ150>470-030500-
OFFSHORE BUOY REPORTS

STATION/POSITION TIME  TEMP    WIND        PRES    WAVE
                       AIR SEA DIR/SP/G            HT/PER
                 (UTC) (F)     (DEG/KT/KT) (MB)    (FT/S)
$$


USA.gov is the U.S. government's official web portal to all federal, state and local government web resources and services.